Location: Krasnoyarskiy Pitomnik
(51.1333°N, 71.6167°E)
Time: 16:12:21
(UTC+00:00)

Altair - Pass Details

Date: 17 April 2024
Orbit: 1501 x 1682 km, 47.2° (Epoch: 18 May)

Event Time Altitude Azimuth Distance (km) Brightness Sun altitude
Rises 14:36:45 0° 218° (SW) 4,909 10.4 -4.3°
Reaches altitude 10° 14:40:08 10° 212° (SSW) 3,909 9.8 -4.8°
Maximum altitude 14:49:15 42° 146° (SSE) 2,194 8.0 -6.1°
Drops below altitude 10° 14:58:05 10° 81° (E) 3,800 9.1 -7.3°
Sets 15:01:20 0° 74° (ENE) 4,761 9.6 -7.7°
